Weather History for Santa Ana, CA

Change the Weather History Date:

Wednesday, April 24, 2013

  Actual Average Record
Temperature  
Mean Temperature 60 °F 62 °F  
Max Temperature 62 °F 70 °F 91 °F (2001)
Min Temperature 57 °F 55 °F 51 °F (2006)
Degree Days  
Heating Degree Days 5 3  
Month to date heating degree days 61 103  
Since 1 July heating degree days 1081 1190  
Cooling Degree Days 0 1  
Month to date cooling degree days 3 6  
Year to date cooling degree days 7 21  
Growing Degree Days 10 (Base 50)    
Moisture  
Dew Point 51 °F    
Average Humidity 73    
Maximum Humidity 86    
Minimum Humidity 60    
Precipitation  
Precipitation T in 0.04 in 0.31 in (2005)
Month to date precipitation 0.01 0.72  
Year to date precipitation 1.68 8.48  
Since 1 July precipitation 4.70 12.85  
Snow  
Snow 0.00 in - - ()
Month to date snowfall 0.0  
Year to date snowfall 0.0  
Since 1 July snowfall 0.0  
Snow Depth 0.00 in    
Sea Level Pressure  
Sea Level Pressure 29.94 in    
Wind  
Wind Speed 5 mph (SSW)    
Max Wind Speed 12 mph    
Max Gust Speed 15 mph    
Visibility 8 miles    
Events Rain    
T = Trace of Precipitation, MM = Missing Value Source: NWS Daily Summary

Daily Weather History Graph

Daily Weather History Graph

Search for Another Location

Airport:

Trip Planner

Search our weather history database for the weather conditions in past years. The results will help you decide how hot, cold, wet, or windy it might be!

Date:

Astronomy

Apr. 24, 2013 Rise Set
Actual Time 6:09 AM PDT 7:29 PM PDT
Civil Twilight 5:43 AM PDT 7:55 PM PDT
Nautical Twilight 5:12 AM PDT 8:27 PM PDT
Astronomical Twilight 4:40 AM PDT 8:59 PM PDT
Moon 6:39 PM PDT (4/24) 5:13 AM PDT (4/24)
Length of Visible Light 14h 11m
Length of Day
13h 19m
Waxing Gibbous, 98% of the Moon is Illuminated
Apr 24
Waxing Gibbous
Apr 25
Full
May 2
Last Quarter
May 9
New
May 17
First Quarter

Hourly Weather History & Observations

Time (PDT) Temp. Dew Point Humidity Pressure Visibility Wind Dir Wind Speed Gust Speed Precip Events Conditions
12:53 AM 60.1 °F 52.0 °F 75% 29.95 in 10.0 mi Calm Calm - N/A   Overcast
1:53 AM 60.1 °F 52.0 °F 75% 29.93 in 10.0 mi Calm Calm - N/A   Overcast
3:53 AM 59.0 °F 53.1 °F 81% 29.91 in 7.0 mi Calm Calm - N/A   Overcast
4:00 AM 59.0 °F 53.6 °F 82% 29.91 in 8.0 mi East 4.6 mph - N/A   Overcast
4:53 AM 57.9 °F 54.0 °F 87% 29.91 in 7.0 mi SSW 5.8 mph - N/A   Overcast
5:00 AM 57.2 °F 53.6 °F 88% 29.91 in 7.0 mi SSW 5.8 mph - N/A   Overcast
5:09 AM 57.2 °F 53.6 °F 88% 29.91 in 5.0 mi SSW 4.6 mph - N/A   Overcast
5:26 AM 57.2 °F 53.6 °F 88% 29.91 in 8.0 mi SW 4.6 mph - N/A   Overcast
5:41 AM 57.2 °F 53.6 °F 88% 29.91 in 9.0 mi Calm Calm - N/A   Overcast
5:53 AM 57.0 °F 53.1 °F 87% 29.91 in 6.0 mi ESE 3.5 mph - 0.00 in   Overcast
6:53 AM 57.9 °F 53.1 °F 84% 29.92 in 9.0 mi South 4.6 mph - N/A   Overcast
7:00 AM 57.2 °F 53.6 °F 88% 29.92 in 10.0 mi South 3.5 mph - N/A   Overcast
7:53 AM 59.0 °F 52.0 °F 78% 29.93 in 10.0 mi ESE 3.5 mph - N/A   Overcast
8:53 AM 59.0 °F 53.1 °F 81% 29.94 in 4.0 mi SE 5.8 mph - N/A   Haze
9:53 AM 59.0 °F 54.0 °F 83% 29.95 in 5.0 mi SSW 4.6 mph - 0.00 in   Haze
10:53 AM 59.0 °F 54.0 °F 83% 29.96 in 6.0 mi SW 6.9 mph - 0.00 in   Overcast
11:48 AM 57.2 °F 53.6 °F 88% 29.96 in 7.0 mi WSW 8.1 mph - N/A   Overcast
11:53 AM 57.9 °F 53.1 °F 84% 29.96 in 9.0 mi SW 9.2 mph - N/A   Overcast
12:11 PM 57.2 °F 51.8 °F 82% 29.96 in 10.0 mi SW 9.2 mph - N/A   Overcast
12:53 PM 59.0 °F 52.0 °F 78% 29.96 in 10.0 mi SW 10.4 mph - N/A   Overcast
1:53 PM 59.0 °F 51.1 °F 75% 29.96 in 10.0 mi SW 6.9 mph - N/A   Overcast
2:53 PM 61.0 °F 51.1 °F 70% 29.94 in 10.0 mi Variable 4.6 mph - N/A   Overcast
3:53 PM 61.0 °F 48.0 °F 62% 29.93 in 10.0 mi South 5.8 mph - N/A   Overcast
4:26 PM 62.6 °F 48.2 °F 59% 29.93 in 10.0 mi South 3.5 mph - N/A   Overcast
4:53 PM 62.1 °F 48.0 °F 60% 29.92 in 10.0 mi Variable 4.6 mph - N/A   Overcast
5:53 PM 62.1 °F 46.9 °F 58% 29.93 in 10.0 mi SSW 3.5 mph - N/A   Overcast
6:53 PM 62.1 °F 45.0 °F 53% 29.93 in 10.0 mi Calm Calm - N/A   Overcast
7:53 PM 61.0 °F 50.0 °F 67% 29.94 in 10.0 mi SW 8.1 mph - N/A   Overcast
8:53 PM 61.0 °F 48.9 °F 64% 29.96 in 10.0 mi South 8.1 mph - N/A   Overcast
9:53 PM 61.0 °F 48.0 °F 62% 29.97 in 10.0 mi South 6.9 mph - 0.00 in   Overcast
10:35 PM 60.8 °F 48.2 °F 63% 29.98 in 6.0 mi SW 5.8 mph - 0.00 in Rain Light Rain
10:53 PM 60.1 °F 50.0 °F 69% 29.99 in 6.0 mi SSW 5.8 mph - 0.00 in Rain Light Rain
11:10 PM 60.8 °F 50.0 °F 68% 29.98 in 10.0 mi SSW 4.6 mph - 0.00 in   Overcast
11:53 PM 60.1 °F 50.0 °F 69% 29.98 in 10.0 mi Calm Calm - 0.00 in   Overcast